Myrtle Beach, SC

9:18 AM EST on January 18, 2017 (GMT -0500)
Myrtle Beach International

Weather History for KMYR - March, 2013

Change the Weather History Date:

Sunday, March 31, 2013

  Actual Average Record
Temperature  
Mean Temperature 60 °F -  
Max Temperature 69 °F 67 °F 82 °F (1954)
Min Temperature 51 °F 48 °F 31 °F (1950)
Degree Days  
Heating Degree Days 5    
Growing Degree Days 10 (Base 50)    
Moisture  
Dew Point 53 °F    
Average Humidity 79    
Maximum Humidity 94    
Minimum Humidity 56    
Precipitation  
Precipitation 0.15 in - - ()
Sea Level Pressure  
Sea Level Pressure 30.01 in    
Wind  
Wind Speed 8 mph (South)    
Max Wind Speed 17 mph    
Max Gust Speed 32 mph    
Visibility 10 miles    
Events Rain , Thunderstorm    
Averages and records for this station are not official NWS values.
T = Trace of Precipitation, MM = Missing Value Source: NWS Daily Summary

Daily Weather History Graph

Daily Weather History Graph

Search for Another Location

Airport or City:

Trip Planner

Search our weather history database for the weather conditions in past years. The results will help you decide how hot, cold, wet, or windy it might be!

Date:

Astronomy

Mar. 31, 2013 Rise Set
Actual Time 7:04 AM EDT 7:35 PM EDT
Civil Twilight 6:39 AM EDT 8:00 PM EDT
Nautical Twilight 6:09 AM EDT 8:30 PM EDT
Astronomical Twilight 5:39 AM EDT 9:00 PM EDT
Moon No Moon Rise 10:02 AM EDT (3/31)
Length of Visible Light 13h 21m
Length of Day
12h 31m
Waning Gibbous, 78% of the Moon is Illuminated
Mar 31
Waning Gibbous
Apr 3
Last Quarter
Apr 10
New
Apr 18
First Quarter
Apr 25
Full

Hourly Weather History & Observations

Time (EDT) Temp. Dew Point Humidity Pressure Visibility Wind Dir Wind Speed Gust Speed Precip Events Conditions
12:15 AM 51.8 °F 50.0 °F 94% 30.12 in 10.0 mi ESE 3.5 mph - N/A   Clear
12:35 AM 53.6 °F 50.0 °F 88% 30.12 in 10.0 mi ESE 3.5 mph - N/A   Clear
12:55 AM 53.6 °F 50.0 °F 88% 30.12 in 10.0 mi ESE 3.5 mph - N/A   Clear
1:15 AM 53.6 °F 51.8 °F 94% 30.11 in 10.0 mi ESE 5.8 mph - N/A   Clear
1:35 AM 53.6 °F 48.2 °F 82% 30.10 in 10.0 mi ESE 5.8 mph - N/A   Clear
1:55 AM 53.6 °F 48.2 °F 82% 30.10 in 10.0 mi SE 4.6 mph - N/A   Clear
2:15 AM 53.6 °F 51.8 °F 94% 30.09 in 10.0 mi ESE 8.1 mph - N/A   Clear
2:35 AM 55.4 °F 51.8 °F 88% 30.08 in 10.0 mi ESE 6.9 mph - N/A   Clear
2:55 AM 55.4 °F 51.8 °F 88% 30.08 in 10.0 mi ESE 5.8 mph - N/A   Scattered Clouds
3:15 AM 55.4 °F 51.8 °F 88% 30.07 in 10.0 mi SSE 4.6 mph - N/A   Overcast
3:35 AM 55.4 °F 53.6 °F 94% 30.06 in 10.0 mi SSE 6.9 mph - N/A   Mostly Cloudy
3:55 AM 57.2 °F 53.6 °F 88% 30.05 in 10.0 mi SSE 8.1 mph - N/A   Mostly Cloudy
4:15 AM 57.2 °F 53.6 °F 88% 30.05 in 10.0 mi South 9.2 mph - N/A   Mostly Cloudy
4:35 AM 57.2 °F 53.6 °F 88% 30.04 in 10.0 mi South 6.9 mph - N/A   Scattered Clouds
4:55 AM 57.2 °F 53.6 °F 88% 30.04 in 10.0 mi South 8.1 mph - N/A   Scattered Clouds
5:15 AM 57.2 °F 53.6 °F 88% 30.03 in 10.0 mi South 8.1 mph - N/A   Mostly Cloudy
5:35 AM 59.0 °F 53.6 °F 82% 30.03 in 10.0 mi South 9.2 mph - N/A   Scattered Clouds
5:50 AM 59.0 °F 53.6 °F 82% 30.02 in 10.0 mi South 13.8 mph - N/A   Scattered Clouds
6:50 AM 59.0 °F 53.6 °F 82% 30.02 in 10.0 mi SW 11.5 mph - N/A   Mostly Cloudy
7:50 AM 60.8 °F 51.8 °F 72% 30.03 in 10.0 mi SW 11.5 mph - N/A   Mostly Cloudy
8:47 AM 62.6 °F 51.8 °F 68% 30.03 in 10.0 mi SW 9.2 mph - N/A   Mostly Cloudy
9:45 AM 62.6 °F 51.8 °F 68% 30.03 in 10.0 mi WSW 11.5 mph - N/A   Mostly Cloudy
10:50 AM 69.8 °F 55.4 °F 60% 30.02 in 10.0 mi WSW 11.5 mph - N/A   Mostly Cloudy
11:45 AM 68.0 °F 53.6 °F 60% 30.01 in 10.0 mi WSW 17.3 mph - N/A   Mostly Cloudy
12:45 PM 69.8 °F 55.4 °F 60% 29.98 in 10.0 mi WSW 17.3 mph - N/A   Mostly Cloudy
1:45 PM 66.2 °F 53.6 °F 64% 29.96 in 10.0 mi SSW 17.3 mph - N/A   Mostly Cloudy
2:45 PM 68.0 °F 55.4 °F 64% 29.92 in 10.0 mi South 17.3 mph - N/A   Scattered Clouds
3:45 PM 68.0 °F 55.4 °F 64% 29.90 in 10.0 mi South 17.3 mph - N/A   Mostly Cloudy
4:45 PM 66.2 °F 55.4 °F 68% 29.89 in 10.0 mi South 17.3 mph - N/A   Mostly Cloudy
5:45 PM 68.0 °F 55.4 °F 64% 29.89 in 10.0 mi South 17.3 mph - N/A   Scattered Clouds
6:45 PM 64.4 °F 48.2 °F 56% 29.90 in 10.0 mi SSW 17.3 mph 24.2 mph N/A   Scattered Clouds
7:45 PM 64.4 °F 53.6 °F 68% 29.89 in 10.0 mi SSW 15.0 mph - N/A   Clear
8:47 PM 62.6 °F 53.6 °F 72% 29.94 in 6.0 mi SSW 13.8 mph - N/A Rain , Thunderstorm Light Thunderstorms and Rain
9:10 PM 60.8 °F 55.4 °F 82% 29.93 in 10.0 mi WSW 9.2 mph - N/A   Overcast
9:50 PM 60.8 °F 57.2 °F 88% 29.92 in 10.0 mi SSW 5.8 mph - N/A   Mostly Cloudy
10:55 PM 60.8 °F 55.4 °F 82% 29.93 in 10.0 mi SW 8.1 mph - N/A   Mostly Cloudy
11:15 PM 60.8 °F 55.4 °F 82% 29.95 in 10.0 mi WNW 15.0 mph - N/A   Mostly Cloudy
11:35 PM 60.8 °F 57.2 °F 88% 29.93 in 7.0 mi SSW 15.0 mph 32.2 mph 0.15 in Thunderstorm Thunderstorm
11:55 PM 60.8 °F 57.2 °F 88% 29.93 in 10.0 mi SSW 9.2 mph - N/A   Mostly Cloudy